Blythe, CA

1:44 AM PDT on September 22, 2017 (GMT -0700)
Blythe

Weather History for KBLH - September, 2013

Change the Weather History Date:

Thursday, September 19, 2013

  Actual Average Record
Temperature  
Mean Temperature 85 °F -  
Max Temperature 102 °F 98 °F 109 °F (1980)
Min Temperature 70 °F 71 °F 59 °F (1993)
Cooling Degree Days 20    
Growing Degree Days 35 (Base 50)    
Moisture  
Dew Point 39 °F    
Average Humidity 21    
Maximum Humidity 30    
Minimum Humidity 11    
Precipitation  
Precipitation 0.00 in - - ()
Sea Level Pressure  
Sea Level Pressure 29.67 in    
Wind  
Wind Speed 5 mph (WSW)    
Max Wind Speed 9 mph    
Max Gust Speed -    
Visibility 10 miles    
Events      
Averages and records for this station are not official NWS values.
T = Trace of Precipitation, MM = Missing Value Source: NWS Daily Summary

Daily Weather History Graph

Daily Weather History Graph

Search for Another Location

Airport or City:

Trip Planner

Search our weather history database for the weather conditions in past years. The results will help you decide how hot, cold, wet, or windy it might be!

Date:

Astronomy

Sep. 19, 2013 Rise Set
Actual Time 6:25 AM PDT 6:39 PM PDT
Civil Twilight 6:00 AM PDT 7:04 PM PDT
Nautical Twilight 5:31 AM PDT 7:33 PM PDT
Astronomical Twilight 5:01 AM PDT 8:02 PM PDT
Moon 6:44 PM PDT (9/19) 6:36 AM PDT (9/19)
Length of Visible Light 13h 03m
Length of Day
12h 14m
Full, 100% of the Moon is Illuminated
Sep 19
Full
Sep 26
Last Quarter
Oct 4
New
Oct 11
First Quarter
Oct 18
Full

Hourly Weather History & Observations

Time (PDT) Temp. Dew Point Humidity Pressure Visibility Wind Dir Wind Speed Gust Speed Precip Events Conditions
12:52 AM 81.0 °F 37.0 °F 21% 29.63 in 10.0 mi SW 6.9 mph - N/A   Clear
1:52 AM 80.1 °F 37.0 °F 21% 29.63 in 10.0 mi WSW 5.8 mph - N/A   Clear
2:52 AM 73.0 °F 39.9 °F 30% 29.64 in 10.0 mi NNE 5.8 mph - N/A   Clear
3:52 AM 72.0 °F 35.1 °F 26% 29.64 in 10.0 mi NW 5.8 mph - N/A   Clear
4:52 AM 73.0 °F 34.0 °F 24% 29.65 in 10.0 mi NNW 5.8 mph - N/A   Clear
5:52 AM 71.1 °F 34.0 °F 26% 29.67 in 10.0 mi North 5.8 mph - N/A   Clear
6:52 AM 70.0 °F 36.0 °F 29% 29.70 in 10.0 mi WNW 4.6 mph - N/A   Clear
7:52 AM 75.9 °F 39.9 °F 27% 29.71 in 10.0 mi Calm Calm - N/A   Clear
8:52 AM 80.1 °F 43.0 °F 27% 29.73 in 10.0 mi Calm Calm - N/A   Clear
9:52 AM 86.0 °F 46.0 °F 25% 29.73 in 10.0 mi Variable 3.5 mph - N/A   Clear
10:52 AM 89.1 °F 46.0 °F 22% 29.73 in 10.0 mi Calm Calm - N/A   Clear
11:52 AM 93.0 °F 37.9 °F 15% 29.72 in 10.0 mi Calm Calm - N/A   Clear
12:52 PM 96.1 °F 39.0 °F 14% 29.70 in 10.0 mi Variable 4.6 mph - N/A   Clear
1:52 PM 99.0 °F 36.0 °F 11% 29.68 in 10.0 mi Variable 3.5 mph - N/A   Clear
2:52 PM 100.0 °F 37.0 °F 11% 29.66 in 10.0 mi NW 3.5 mph - N/A   Clear
3:52 PM 100.9 °F 36.0 °F 11% 29.64 in 10.0 mi SSW 4.6 mph - N/A   Clear
4:52 PM 100.0 °F 39.0 °F 12% 29.63 in 10.0 mi SSW 8.1 mph - N/A   Clear
5:52 PM 98.1 °F 41.0 °F 14% 29.62 in 10.0 mi South 6.9 mph - N/A   Clear
6:52 PM 95.0 °F 43.0 °F 17% 29.63 in 10.0 mi SSE 4.6 mph - N/A   Clear
7:52 PM 91.0 °F 44.1 °F 20% 29.64 in 10.0 mi SSW 5.8 mph - N/A   Clear
8:52 PM 87.1 °F 44.1 °F 22% 29.66 in 10.0 mi WSW 3.5 mph - N/A   Clear
9:52 PM 84.9 °F 39.9 °F 20% 29.67 in 10.0 mi Calm Calm - N/A   Clear
10:52 PM 82.0 °F 37.9 °F 21% 29.67 in 10.0 mi NW 9.2 mph - N/A   Clear
11:52 PM 79.0 °F 41.0 °F 26% 29.68 in 10.0 mi South 3.5 mph - N/A   Clear